Wind_Speed
22 21 23 23 25 26 27 30 30 28 28 27 27 29 32 36 36 35 37 34 34 34 32 32 33 32 32 34 36 38 38 36 39 44 44 44 43 48 55 57 61 62 59 60 68
22 22 23 25 24 25 27 29 30 32 29 29 27 28 29 31 36 35 36 35 34 34 34 33 32 33 34 35 35 36 37 37 41 44 46 46 45 48 59 66 65 63 61 59 59
23 23 23 24 23 25 24 24 24 28 28 28 26 25 27 27 30 35 35 35 34 34 34 34 32 33 34 33 35 36 36 39 42 44 46 48 48 44 63 70 71 65 63 59 58
23 23 23 23 23 23 21 20 19 20 23 26 26 24 24 26 27 32 34 34 35 35 35 34 32 34 35 34 34 34 37 39 40 42 44 44 44 39 67 77 75 63 61 50 58
24 23 23 23 24 22 20 18 18 16 17 20 22 22 22 24 30 26 31 34 35 35 35 33 33 34 35 33 30 33 33 32 34 32 33 35 32 43 68 73 71 66 64 61 56
24 26 24 25 24 23 22 21 18 17 14 15 19 18 20 23 24 25 28 32 35 35 33 34 37 33 30 30 28 27 24 23 18 15 18 21 27 49 61 56 35 65 61 63 54
24 24 26 26 25 25 22 22 21 18 16 14 17 22 22 21 19 22 28 31 33 34 34 36 32 29 30 28 26 21 15 15 15 13 14 20 36 53 49 33 54 49 42 52 53
28 26 24 25 24 24 22 20 21 22 20 17 15 17 20 14 19 22 27 28 30 32 34 33 32 28 28 28 19 15 11 13 17 14 9 25 22 50 41 32 36 31 47 44 30
31 30 27 26 25 23 23 23 24 26 26 21 20 17 19 19 22 23 24 25 30 33 34 35 29 27 27 22 17 14 11 13 14 12 13 22 24 26 37 43 38 33 35 34 47
28 28 28 29 28 27 29 29 28 29 25 23 22 22 19 18 19 22 26 26 29 31 31 31 28 25 23 19 11 15 15 18 18 18 22 21 23 21 27 22 28 34 33 32 36
30 30 29 29 30 30 29 26 26 23 22 22 22 20 21 18 17 18 21 20 25 27 27 28 28 21 24 22 23 24 21 23 22 21 21 20 19 17 25 28 30 34 31 37 35
32 32 31 30 31 30 30 26 26 25 22 22 21 20 22 20 19 20 22 20 21 23 28 29 21 25 27 24 26 26 27 27 26 26 26 23 19 18 30 38 32 28 29 25 29
32 34 35 33 32 33 30 27 25 24 21 19 20 19 20 19 20 21 20 22 21 23 22 21 29 30 26 27 27 27 29 29 29 32 32 30 26 23 31 35 30 22 26 26 25
34 35 38 38 33 32 32 28 24 21 21 18 19 15 13 15 15 19 20 20 20 22 25 27 29 31 30 29 31 31 28 28 31 34 35 35 30 28 31 29 20 19 21 22 25
36 35 38 37 35 31 31 28 24 20 20 18 17 16 16 16 18 20 19 19 20 23 20 22 29 30 31 27 31 29 32 32 32 30 35 34 35 28 31 29 25 25 28 29 33
39 36 36 38 36 30 28 27 24 21 19 18 16 16 18 16 15 15 14 17 19 19 17 21 28 31 29 29 33 33 32 33 32 33 34 34 38 39 37 35 33 34 36 34 33
42 39 37 38 33 31 27 26 24 22 20 20 19 19 17 12 11 12 10 11 15 16 15 20 23 28 29 30 33 34 33 31 31 28 27 27 31 38 43 38 37 39 38 35 36
43 40 38 38 31 30 27 27 24 25 24 23 18 19 19 17 13 16 14 14 13 13 12 12 20 22 28 30 33 34 33 32 34 31 27 26 28 28 31 33 37 38 36 37 39
43 39 38 38 33 30 29 28 25 25 25 23 23 24 24 20 19 16 16 16 16 15 9 11 14 17 22 28 34 38 38 37 38 32 32 31 30 30 33 31 34 38 33 33 38
42 38 38 35 34 31 30 27 26 27 24 24 26 26 26 22 21 20 17 18 18 15 14 12 13 17 22 25 25 30 38 39 38 35 32 29 32 30 34 37 40 38 37 37 35
42 41 38 37 34 33 30 28 27 26 22 26 26 28 30 27 22 21 22 23 20 18 18 18 14 13 18 19 24 29 35 34 34 38 33 31 33 32 32 33 36 41 41 44 41
40 39 38 37 35 33 31 30 29 25 24 28 29 32 26 24 22 23 25 24 23 25 24 22 19 17 16 23 25 24 29 34 31 31 29 31 35 34 32 35 40 38 41 37 38
40 39 39 38 35 32 31 30 31 26 27 28 34 36 26 23 25 24 26 22 24 26 27 22 24 21 21 26 26 24 25 30 32 32 31 37 36 37 40 42 41 35 30 36 40
40 38 39 38 36 33 31 30 33 32 34 31 23 23 22 22 24 25 23 21 23 24 25 24 26 25 26 28 30 30 27 31 32 36 34 38 37 41 43 40 37 35 34 37 39
38 37 36 36 36 34 32 31 32 36 29 25 23 23 23 23 25 24 22 23 24 24 26 27 26 29 29 28 30 31 32 29 33 28 34 28 37 37 30 28 28 30 31 35 34
36 34 34 35 36 35 34 29 35 34 34 30 22 21 21 22 24 21 22 23 25 24 26 27 27 29 27 28 31 31 30 32 35 32 33 30 32 31 30 32 36 35 35 32 35
31 30 33 34 35 36 34 31 34 32 34 28 21 21 21 22 23 23 22 22 23 23 24 25 25 27 23 28 31 31 24 31 35 36 32 31 28 31 33 34 36 35 31 30 29
Wind_Direction
311 306 304 303 301 296 290 282 273 264 263 264 263 257 251 246 245 244 243 241 241 243 243 244 245 249 251 252 253 257 259 260 260 258 256 253 246 226 227 232 232 233 231 237 233
316 309 307 307 306 301 299 289 273 267 264 264 264 264 255 251 243 241 242 241 241 242 245 245 246 247 250 253 256 258 260 263 262 263 263 260 255 223 218 231 234 228 233 231 230
321 314 313 310 308 307 312 302 285 267 259 260 260 266 263 256 246 241 242 240 240 241 245 248 250 252 254 257 259 260 263 263 263 266 268 268 264 223 213 224 230 226 228 232 231
324 318 317 313 314 312 313 317 303 280 265 257 256 262 264 259 252 242 241 241 240 240 242 246 248 250 251 254 258 264 265 266 270 271 272 273 271 236 207 215 224 221 221 226 236
325 317 316 313 314 316 315 312 314 308 281 259 254 260 258 258 251 246 242 241 241 242 244 247 248 250 252 256 263 262 267 275 281 285 282 280 258 206 203 214 221 221 223 216 227
328 321 315 312 315 316 314 311 312 308 290 268 255 257 257 254 254 248 245 240 241 240 242 245 246 252 257 258 265 271 278 286 289 289 301 292 229 202 203 221 223 220 226 226 222
325 319 317 312 310 311 312 313 314 308 299 274 259 261 258 258 254 247 245 242 240 241 241 244 249 251 254 256 261 269 290 297 299 311 315 269 215 205 212 248 230 219 230 230 232
328 319 313 309 306 304 304 310 311 314 307 290 268 261 253 252 249 240 242 245 246 245 245 247 246 249 253 258 265 270 273 286 295 301 279 249 241 212 221 227 234 233 233 243 252
334 323 312 306 303 298 298 302 303 304 300 295 281 267 259 249 246 248 247 243 242 243 244 247 248 247 250 259 257 253 251 265 266 255 243 251 260 229 230 236 250 239 228 235 239
326 319 314 305 303 298 300 302 302 304 288 283 282 274 265 255 246 242 247 248 239 238 241 247 247 246 253 252 248 231 223 239 247 248 260 268 270 258 212 250 254 242 237 239 233
323 317 307 304 300 299 302 306 310 305 294 279 273 277 266 254 249 244 250 246 243 242 242 242 243 247 246 240 230 229 222 224 240 250 252 256 258 268 212 250 242 236 232 230 226
315 311 307 301 299 297 299 306 310 309 299 289 278 270 264 256 248 240 239 245 237 237 244 249 248 238 238 242 239 235 227 228 233 229 241 242 242 241 234 241 240 237 230 230 235
311 307 302 298 296 296 298 302 303 302 295 290 283 269 260 254 252 253 242 243 239 237 243 240 231 237 243 237 233 231 236 232 227 227 234 243 241 228 233 240 246 236 221 226 232
308 305 301 297 295 295 298 299 298 299 291 287 279 268 256 250 250 250 243 239 236 236 239 234 233 233 236 238 236 237 238 240 238 236 238 245 245 241 239 238 233 249 260 262 275
307 302 296 295 293 293 296 296 292 289 287 278 273 270 261 263 254 242 245 233 229 230 237 231 231 230 236 238 241 238 235 241 242 242 240 243 251 241 247 252 262 263 269 280 279
298 298 292 292 290 288 289 289 287 283 276 263 264 258 265 264 257 244 241 240 237 243 234 237 237 238 239 243 242 241 232 242 250 251 246 242 250 257 250 250 256 264 266 270 260
292 294 290 289 289 284 282 283 278 275 273 263 257 255 254 245 243 237 223 234 226 229 229 231 231 236 237 236 241 241 239 242 250 254 253 251 252 250 254 257 260 265 259 256 251
290 288 287 285 282 278 274 274 273 270 266 264 255 252 263 253 227 216 218 234 236 231 231 241 230 238 243 235 243 241 243 251 255 256 257 256 250 245 249 257 259 259 255 253 251
284 281 280 280 276 272 270 271 269 261 260 257 253 258 257 258 256 253 254 242 248 248 239 233 231 230 234 244 240 243 249 254 259 261 256 242 250 244 243 241 249 250 254 251 259
280 274 273 273 272 269 265 266 261 257 259 260 251 254 258 260 268 260 254 264 265 275 268 266 245 244 246 248 245 245 244 247 256 257 259 252 246 247 244 245 254 256 251 251 255
281 273 270 267 266 264 262 259 256 254 253 258 253 249 250 262 262 257 251 258 265 273 265 265 265 262 250 260 245 241 248 245 248 252 256 253 243 243 252 268 271 266 264 258 261
276 271 267 264 261 261 259 253 253 255 255 255 248 246 247 260 261 258 257 255 254 258 267 267 268 269 269 255 254 251 250 245 245 251 254 242 245 253 271 276 277 274 265 268 267
273 266 263 261 260 257 256 252 250 246 250 262 260 230 228 247 253 255 259 261 258 256 261 265 267 267 266 261 259 253 249 248 244 244 246 249 247 259 267 275 273 274 283 270 267
268 261 259 258 254 253 251 247 247 245 259 252 263 266 251 253 255 255 260 261 256 253 256 257 265 269 264 255 254 257 249 247 246 245 247 247 251 252 259 265 271 277 275 273 275
264 259 256 254 252 249 246 242 240 251 251 249 251 258 253 251 250 255 256 255 253 252 255 260 263 268 268 263 256 254 250 245 248 247 248 251 253 254 261 265 266 265 276 285 279
262 256 252 249 246 243 242 229 235 241 252 252 254 253 250 250 254 253 251 253 257 257 259 264 268 270 267 263 262 260 253 247 245 249 251 252 259 262 264 269 272 275 278 273 274
258 254 248 241 242 241 240 232 236 244 254 249 252 252 248 247 251 253 250 251 254 260 264 270 271 267 264 264 266 266 259 244 240 245 253 260 263 265 265 269 269 271 275 276 263
Height
5806 5803 5799 5797 5795 5793 5790 5788 5786 5784 5784 5784 5783 5783 5783 5785 5787 5789 5790 5794 5794 5796 5798 5800 5802 5805 5807 5808 5809 5809 5811 5813 5812 5809 5812 5815 5819 5823 5826 5826 5829 5831 5830 5830 5836
5802 5797 5794 5791 5789 5786 5783 5781 5778 5777 5776 5776 5777 5777 5776 5777 5779 5782 5783 5785 5787 5789 5791 5794 5797 5799 5800 5801 5802 5803 5804 5803 5802 5800 5801 5803 5805 5808 5816 5814 5820 5826 5824 5819 5824
5797 5794 5790 5787 5784 5780 5777 5774 5771 5769 5769 5769 5769 5770 5770 5770 5771 5773 5775 5778 5780 5782 5784 5786 5790 5791 5791 5793 5794 5794 5796 5794 5792 5790 5789 5788 5789 5791 5802 5805 5808 5816 5817 5816 5809
5793 5789 5786 5783 5780 5776 5773 5770 5766 5763 5762 5762 5763 5763 5763 5764 5766 5766 5768 5771 5773 5776 5777 5780 5783 5784 5785 5786 5787 5789 5786 5785 5782 5780 5778 5776 5775 5778 5786 5790 5791 5797 5809 5808 5807
5790 5785 5781 5778 5775 5772 5769 5766 5763 5759 5757 5757 5756 5757 5757 5759 5756 5762 5762 5764 5766 5769 5771 5774 5775 5776 5778 5780 5782 5780 5779 5775 5771 5768 5766 5763 5763 5769 5775 5775 5778 5784 5792 5793 5798
5787 5783 5779 5775 5771 5768 5765 5762 5760 5757 5754 5752 5752 5752 5752 5752 5754 5755 5756 5758 5760 5762 5765 5766 5766 5770 5772 5772 5771 5771 5769 5766 5762 5760 5757 5757 5759 5760 5764 5764 5771 5777 5778 5791 5796
5782 5778 5775 5771 5768 5765 5761 5759 5756 5753 5751 5749 5747 5746 5746 5747 5748 5749 5748 5751 5754 5756 5758 5758 5761 5765 5764 5765 5764 5764 5761 5757 5755 5755 5753 5752 5752 5752 5760 5764 5770 5770 5776 5784 5777
5779 5775 5771 5766 5763 5760 5757 5755 5753 5750 5748 5746 5743 5742 5740 5743 5741 5741 5742 5745 5748 5749 5749 5751 5754 5757 5757 5757 5757 5756 5755 5754 5753 5752 5753 5749 5754 5755 5760 5761 5768 5771 5777 5779 5782
5774 5770 5767 5762 5758 5755 5752 5749 5747 5746 5744 5741 5740 5738 5736 5737 5736 5736 5738 5739 5740 5742 5743 5743 5748 5751 5751 5751 5751 5751 5750 5751 5751 5750 5749 5749 5750 5757 5760 5762 5760 5765 5769 5775 5779
5768 5764 5761 5757 5754 5751 5749 5745 5741 5738 5736 5735 5734 5735 5732 5731 5730 5730 5730 5733 5734 5735 5736 5739 5741 5744 5746 5746 5747 5745 5745 5746 5746 5747 5745 5747 5748 5752 5755 5756 5757 5761 5765 5767 5771
5764 5759 5755 5751 5748 5745 5742 5740 5739 5734 5731 5729 5728 5728 5727 5726 5726 5725 5723 5726 5727 5729 5731 5732 5736 5740 5739 5738 5736 5738 5740 5741 5742 5743 5744 5745 5745 5749 5751 5752 5754 5755 5759 5763 5767
5759 5752 5748 5746 5742 5738 5736 5735 5733 5729 5725 5722 5721 5721 5720 5720 5720 5721 5721 5721 5723 5725 5724 5727 5732 5731 5731 5732 5732 5733 5734 5737 5739 5740 5739 5741 5744 5746 5749 5749 5749 5752 5754 5757 5759
5753 5748 5743 5739 5735 5732 5729 5729 5725 5722 5719 5718 5716 5715 5716 5715 5714 5714 5716 5715 5716 5718 5720 5722 5723 5724 5726 5727 5727 5727 5729 5733 5736 5736 5735 5737 5739 5741 5742 5743 5748 5748 5749 5752 5754
5744 5741 5737 5731 5729 5726 5724 5722 5719 5716 5714 5712 5711 5710 5711 5710 5710 5709 5709 5711 5711 5713 5714 5716 5717 5718 5718 5721 5722 5722 5727 5728 5730 5733 5733 5733 5736 5736 5738 5739 5742 5742 5743 5744 5746
5735 5731 5727 5724 5721 5718 5718 5714 5714 5711 5710 5708 5706 5706 5705 5707 5706 5703 5704 5705 5705 5707 5710 5712 5710 5712 5714 5717 5716 5720 5720 5722 5723 5726 5729 5730 5730 5734 5731 5733 5736 5737 5737 5738 5740
5725 5722 5719 5715 5714 5712 5710 5707 5706 5706 5704 5703 5701 5701 5701 5700 5700 5699 5701 5701 5702 5703 5707 5705 5706 5707 5711 5713 5713 5714 5717 5718 5719 5721 5722 5725 5725 5725 5726 5728 5731 5731 5731 5732 5733
5716 5714 5710 5706 5707 5704 5703 5702 5700 5698 5698 5698 5697 5697 5696 5696 5696 5696 5697 5699 5700 5701 5702 5700 5701 5703 5706 5708 5708 5710 5712 5715 5716 5717 5718 5719 5718 5718 5718 5722 5724 5724 5723 5724 5724
5706 5704 5700 5698 5697 5695 5695 5694 5692 5691 5690 5690 5691 5691 5690 5692 5693 5694 5694 5696 5696 5696 5697 5698 5698 5699 5700 5704 5705 5706 5707 5709 5709 5712 5713 5712 5712 5713 5714 5716 5716 5713 5716 5718 5720
5693 5691 5690 5689 5687 5686 5687 5685 5685 5684 5684 5685 5685 5685 5684 5687 5688 5688 5689 5691 5692 5693 5694 5695 5695 5695 5695 5697 5700 5700 5700 5703 5703 5705 5705 5707 5706 5709 5709 5711 5708 5710 5711 5711 5713
5683 5679 5678 5678 5677 5677 5677 5678 5677 5676 5677 5678 5679 5679 5677 5680 5681 5682 5683 5684 5685 5687 5687 5690 5692 5691 5691 5691 5692 5691 5693 5695 5695 5696 5697 5700 5700 5703 5703 5704 5705 5705 5706 5706 5707
5672 5667 5668 5667 5668 5667 5668 5669 5668 5668 5670 5671 5672 5672 5673 5673 5675 5675 5676 5677 5678 5680 5681 5684 5686 5687 5686 5685 5684 5685 5682 5686 5689 5690 5690 5692 5693 5694 5697 5698 5695 5695 5697 5697 5700
5656 5657 5656 5656 5657 5658 5660 5660 5661 5660 5661 5663 5664 5665 5666 5667 5668 5668 5666 5671 5674 5674 5674 5677 5678 5679 5680 5677 5677 5678 5678 5679 5680 5683 5683 5685 5688 5689 5691 5690 5687 5687 5686 5690 5691
5645 5642 5643 5645 5647 5647 5650 5651 5651 5653 5653 5654 5655 5655 5657 5660 5660 5661 5661 5665 5667 5667 5667 5670 5671 5673 5673 5672 5671 5671 5672 5671 5673 5674 5676 5680 5683 5685 5683 5681 5678 5680 5682 5681 5679
5630 5631 5629 5632 5636 5638 5640 5641 5642 5644 5646 5647 5648 5648 5650 5652 5653 5653 5655 5658 5659 5660 5661 5663 5663 5665 5666 5664 5664 5663 5665 5664 5665 5666 5671 5670 5674 5676 5675 5674 5675 5674 5673 5672 5672
5615 5616 5618 5621 5624 5626 5629 5631 5632 5634 5637 5639 5640 5642 5643 5644 5645 5647 5649 5649 5651 5653 5654 5655 5656 5656 5657 5656 5655 5655 5656 5658 5656 5660 5659 5665 5662 5663 5670 5669 5667 5665 5664 5664 5663
5602 5603 5605 5608 5611 5615 5617 5621 5623 5625 5629 5631 5634 5635 5636 5637 5638 5639 5640 5642 5643 5646 5646 5647 5648 5647 5649 5647 5646 5647 5649 5650 5650 5651 5652 5655 5657 5659 5661 5661 5658 5657 5657 5657 5656
5589 5591 5593 5596 5600 5603 5608 5613 5616 5618 5620 5622 5625 5627 5629 5630 5630 5631 5634 5635 5637 5638 5639 5640 5640 5639 5641 5638 5637 5639 5641 5640 5642 5642 5646 5648 5652 5650 5651 5651 5649 5649 5649 5648 5647